Observations for Trim Patrick St
| Time | AQI | Temp °C | Hum % | Pres Pa | CO μg/m³ | H₂S μg/m³ | NO μg/m³ | NO₂ μg/m³ | O₃ μg/m³ | SO₂ μg/m³ | PM1 μg/m³ | PM2.5 μg/m³ | PM10 μg/m³ |
|---|---|---|---|---|---|---|---|---|---|---|---|---|---|
| Thursday 27 August 2026 | |||||||||||||
| 22:16 | 3 | 17.8 | 86 | 38,460 | 0.13 | 2.63 | 1.03 | 14.09 | 37.05 | 0 | 19.14 | 27.5 | 30.25 |
| 22:15 | 3 | 17.8 | 86 | 38,460 | 0.13 | 2.55 | 0.94 | 13.92 | 36.94 | 0 | 21.72 | 29.56 | 32.52 |
| 22:14 | 3 | 17.8 | 86 | 38,460 | 0.13 | 2.58 | 0.85 | 13.19 | 40.01 | 0 | 19.14 | 28.19 | 31.01 |
| 22:13 | 3 | 17.8 | 86 | 38,460 | 0.13 | 2.87 | 1.02 | 13.52 | 38.69 | 0.05 | 20 | 28.19 | 31.01 |
| 22:12 | 3 | 17.8 | 86 | 38,460 | 0.14 | 3.08 | 0.95 | 13.41 | 36.39 | 0.08 | 15.71 | 25.44 | 27.98 |
| 22:11 | 3 | 17.8 | 86 | 38,460 | 0.13 | 3.02 | 1.02 | 13.52 | 38.02 | 0.3 | 19.14 | 28.87 | 31.76 |
| 22:10 | 3 | 17.8 | 86 | 38,460 | 0.13 | 3.23 | 1.27 | 13.52 | 38.35 | 0.3 | 21.72 | 29.56 | 30.13 |
| 22:09 | 3 | 17.8 | 86 | 38,460 | 0.14 | 3.1 | 1.33 | 14.07 | 36.29 | 0 | 20 | 28.19 | 29.48 |
| 22:08 | 3 | 17.8 | 86 | 38,460 | 0.15 | 3.18 | 1.31 | 13.51 | 39.53 | 0.64 | 20 | 29.56 | 30.78 |
| 22:07 | 3 | 17.8 | 86 | 38,460 | 0.14 | 3.08 | 1.33 | 13.5 | 37.92 | 0.22 | 20.86 | 28.2 | 28.86 |
| 22:05 | 3 | 17.8 | 86 | 38,460 | 0.14 | 3.08 | 0.99 | 13.75 | 38.43 | 0.08 | 19.14 | 27.5 | 27.54 |
| 22:04 | 3 | 17.8 | 86 | 38,460 | 0.14 | 3.23 | 1.03 | 13.6 | 37.51 | 0.36 | 20 | 28.2 | 28.22 |
| 22:03 | 3 | 17.8 | 86 | 38,460 | 0.13 | 3.34 | 0.91 | 13.6 | 37.51 | 0.27 | 19.14 | 26.83 | 29.51 |
| 22:02 | 3 | 17.8 | 86 | 38,460 | 0.14 | 3.23 | 0.84 | 13.49 | 39.44 | 0 | 20 | 28.2 | 29.51 |
| 22:01 | 3 | 17.8 | 86 | 38,460 | 0.13 | 3.47 | 0.9 | 17.42 | 34.11 | 0 | 20 | 28.89 | 31.78 |
| 22:00 | 3 | 17.8 | 86 | 38,460 | 0.13 | 2.68 | 0.96 | 13.49 | 40.63 | 0.05 | 20 | 29.58 | 32.53 |
| 21:59 | 3 | 17.8 | 86 | 38,460 | 0.13 | 2.89 | 1.06 | 14.22 | 39.87 | 0 | 20.86 | 28.2 | 31.02 |
| 21:58 | 3 | 17.8 | 86 | 38,460 | 0.14 | 3.37 | 1.01 | 14.96 | 36.6 | 0.17 | 20 | 29.58 | 32.53 |
| 21:57 | 3 | 17.8 | 86 | 38,460 | 0.12 | 3.92 | 1.24 | 16.42 | 37.39 | 0 | 20 | 28.9 | 30.19 |
| 21:56 | 3 | 17.8 | 86 | 38,460 | 0.12 | 3.57 | 1.31 | 15.78 | 37.37 | 0 | 19.14 | 26.84 | 29.52 |